This demonstration page uses our WeatherBlox Daily Observations layout. Learn more.

38.88101, -77.10428

Hourly Observations for April 28, 2018

Temp ( °F °C ) Dew Point ( °F °C ) Humidity (%) Winds ( mph kmh ) Pressure ( in mb ) Visibility ( mi km ) Precip ( " mm )
12:52 am 00:52 Partly Cloudy 55 12.8 52 11.1 90 90 SSW 6 9 29.79 1009 10 16.0934 0 0
1:52 am 01:52 Partly Cloudy 57 13.9 50 10 78 78 WNW 3 6 29.8 1009 10 16.0934 0 0
2:52 am 02:52 Clear 55 12.8 51 10.6 87 87 SE 5 7 29.79 1009 10 16.0934 0 0
3:52 am 03:52 Clear 54 12.2 50 10 87 87 Calm 29.79 1009 10 16.0934 0 0
4:52 am 04:52 Clear 54 12.2 50 10 87 87 Calm 29.79 1009 10 16.0934 0 0
5:52 am 05:52 Clear 51 10.6 49 9.4 92 92 S 6 9 29.8 1009 8 12.87472 0 0
6:04 am 06:04 Mostly Cloudy 51 10.6 48 8.9 89 89 SW 3 6 29.8 1009 8 12.87472 0 0
6:14 am 06:14 Partly Cloudy 52 11.1 50 10 93 93 SSW 3 6 29.8 1009 9 14.48406 0 0
6:37 am 06:37 Mostly Cloudy 53 11.7 50 10 89 89 SW 3 6 29.8 1009 8 12.87472 0 0
6:52 am 06:52 Mostly Cloudy 53 11.7 51 10.6 93 93 S 3 6 29.82 1010 9 14.48406 0 0
6:59 am 06:59 Cloudy 55 12.8 52 11.1 90 90 S 7 11 29.83 1010 8 12.87472 0 0
7:24 am 07:24 Cloudy 55 12.8 53 11.7 93 93 S 8 13 29.83 1010 9 14.48406 0 0
7:52 am 07:52 Cloudy 56 13.3 53 11.7 90 90 S 7 11 29.83 1010 9 14.48406 0 0
8:41 am 08:41 Cloudy with Mist and Fog 56 13.3 54 12.2 93 93 S 8 13 29.83 1010 3 4.82802 0 0
8:52 am 08:52 Cloudy with Mist and Fog 56 13.3 54 12.2 93 93 S 7 11 29.83 1010 2.5 4.02335 0 0
9:44 am 09:44 Cloudy with Mist and Fog 56 13.3 54 12.2 93 93 S 7 11 29.83 1010 4 6.43736 0 0
9:52 am 09:52 Cloudy with Mist and Fog 57 13.9 54 12.2 90 90 SSE 5 7 29.83 1010 6 9.65604 0 0
10:30 am 10:30 Cloudy 57 13.9 54 12.2 90 90 SE 5 7 29.83 1010 9 14.48406 0 0
10:45 am 10:45 Partly Cloudy 59 15 54 12.2 83 83 SE 5 7 29.83 1010 10 16.0934 0 0
10:52 am 10:52 Mostly Sunny 59 15 54 12.2 83 83 SSE 5 7 29.82 1010 10 16.0934 0 0
11:52 am 11:52 Mostly Sunny 65 18.3 55 12.8 70 70 S 7 11 29.81 1009 10 16.0934 0 0
12:52 pm 12:52 Mostly Sunny 70 21.1 51 10.6 51 51 SSE 10 17 29.78 1008 10 16.0934 0 0
1:52 pm 13:52 Mostly Sunny 73 22.8 48 8.9 41 41 S 14 22 29.75 1007 10 16.0934 0 0
2:52 pm 14:52 Partly Cloudy 76 24.4 45 7.2 33 33 SSW 14 22 29.73 1007 10 16.0934 0 0
3:16 pm 15:16 Mostly Cloudy 76 24.4 48 8.9 37 37 S 13 20 29.71 1006 10 16.0934 0 0
3:52 pm 15:52 Mostly Cloudy 76 24.4 39 3.9 26 26 S 14 22 29.7 1006 10 16.0934 0 0
4:52 pm 16:52 Mostly Cloudy 76 24.4 37 2.8 24 24 S 14 22 29.69 1006 10 16.0934 0 0
5:52 pm 17:52 Mostly Cloudy 76 24.4 38 3.3 25 25 SSW 14 22 29.69 1006 10 16.0934 0 0
6:17 pm 18:17 Cloudy 71 21.7 42 5.6 35 35 NNW 21 33 29.74 1007 10 16.0934 0 0
6:52 pm 18:52 Mostly Cloudy with Light Rain 69 20.6 45 7.2 42 42 N 14 22 29.74 1007 10 16.0934 0 0.0254
6:57 pm 18:57 Mostly Cloudy with Light Rain 69 20.6 44 6.7 41 41 N 20 31 29.74 1007 10 16.0934 0 0.0254
7:22 pm 19:22 Cloudy 69 20.6 44 6.7 41 41 N 17 28 29.77 1008 10 16.0934 0 0.0254
7:52 pm 19:52 Mostly Cloudy 67 19.4 46 7.8 47 47 NNE 14 22 29.77 1008 10 16.0934 0 0.0254
8:11 pm 20:11 Cloudy 67 19.4 45 7.2 45 45 NNE 12 19 29.8 1009 10 16.0934 0 0
8:33 pm 20:33 Cloudy with Light Rain 66 18.9 47 8.3 50 50 NNE 10 17 29.8 1009 10 16.0934 0 0.0254
8:52 pm 20:52 Cloudy 66 18.9 45 7.2 47 47 N 13 20 29.83 1010 10 16.0934 0 0.0254
9:52 pm 21:52 Cloudy 65 18.3 41 5 42 42 NW 22 35 29.86 1011 10 16.0934 0 0.0254
10:52 pm 22:52 Cloudy with Light Rain 58 14.4 42 5.6 56 56 NNW 25 41 29.91 1013 10 16.0934 0 0.0254
11:52 pm 23:52 Cloudy with Light Rain 56 13.3 39 3.9 53 53 NNW 25 41 29.95 1014 10 16.0934 0 0.0254

Powered by AerisWeather